When you browse on this site, cookies collect data to enhance your experience and personalize the content and advertising you see.
Visit our Privacy Policy to learn more. By continuing to use the site, you agree to this use of cookies and data.
  • In United Kingdom
  • List of Countries
  • For 7 days
  • Water Temperature
  • Satellite Maps
  • Weather Map
  • Weather Widgets
  • user-avatar
    Login

    Hourly Weather Huánuco

    Today, 18 July, Thursday

    Time Temperature Precipitation Wind Pressure Humidity
    00:00 +14°C° 0 mm 0 mps 598 mmHg 91%
    01:00 +15°C° 0 mm 0 mps 598 mmHg 89%
    02:00 +14°C° 0 mm 0 mps 598 mmHg 89%
    03:00 +14°C° 0 mm 0 mps 597 mmHg 90%
    04:00 +14°C° 0 mm 0 mps 597 mmHg 90%
    05:00 +14°C° 0 mm 0 mps 597 mmHg 89%
    06:00 +14°C° 0 mm 0 mps 598 mmHg 88%
    07:00 +15°C° 0 mm 0 mps 598 mmHg 87%
    08:00 +16°C° 0 mm 0 mps 599 mmHg 82%
    09:00 +19°C° 0 mm 1 mps 600 mmHg 77%
    10:00 +20°C° 0 mm 1 mps 600 mmHg 72%
    11:00 +20°C° 0.3 mm 2 mps 600 mmHg 69%
    12:00 +21°C° 0.3 mm 2 mps 600 mmHg 67%
    13:00 +22°C° 0.3 mm 3 mps 600 mmHg 64%
    14:00 +22°C° 0.5 mm 3 mps 599 mmHg 68%
    15:00 +21°C° 0.5 mm 3 mps 598 mmHg 71%
    16:00 +21°C° 0.5 mm 3 mps 597 mmHg 74%
    17:00 +19°C° 0.1 mm 2 mps 597 mmHg 81%
    18:00 +19°C° 0.1 mm 1 mps 597 mmHg 88%
    19:00 +16°C° 0.1 mm 1 mps 597 mmHg 95%
    20:00 +16°C° 0 mm 1 mps 597 mmHg 95%
    21:00 +14°C° 0 mm 0 mps 597 mmHg 94%
    22:00 +14°C° 0 mm 0 mps 597 mmHg 93%
    23:00 +14°C° 0 mm 0 mps 597 mmHg 93%

    Tomorrow, 19 July, Friday

    Time Temperature Precipitation Wind Pressure Humidity
    00:00 +15°C° 0 mm 1 mps 597 mmHg 92%
    01:00 +15°C° 0 mm 1 mps 597 mmHg 91%
    02:00 +14°C° 0 mm 1 mps 597 mmHg 90%
    03:00 +14°C° 0 mm 1 mps 596 mmHg 89%
    04:00 +14°C° 0 mm 1 mps 596 mmHg 89%
    05:00 +14°C° 0 mm 1 mps 596 mmHg 89%
    06:00 +13°C° 0 mm 0 mps 597 mmHg 88%
    07:00 +14°C° 0 mm 0 mps 597 mmHg 88%
    08:00 +18°C° 0 mm 1 mps 598 mmHg 80%
    09:00 +20°C° 0 mm 1 mps 599 mmHg 72%
    10:00 +21°C° 0 mm 2 mps 600 mmHg 63%
    11:00 +23°C° 0.1 mm 2 mps 600 mmHg 60%
    12:00 +24°C° 0.1 mm 3 mps 600 mmHg 56%
    13:00 +24°C° 0.1 mm 3 mps 599 mmHg 52%
    14:00 +24°C° 0.2 mm 3 mps 599 mmHg 56%
    15:00 +22°C° 0.2 mm 3 mps 598 mmHg 59%
    16:00 +22°C° 0.2 mm 3 mps 597 mmHg 63%
    17:00 +20°C° 0 mm 3 mps 597 mmHg 73%
    18:00 +18°C° 0 mm 2 mps 596 mmHg 84%
    19:00 +16°C° 0 mm 1 mps 596 mmHg 95%
    20:00 +15°C° 0 mm 1 mps 596 mmHg 95%
    21:00 +14°C° 0 mm 0 mps 596 mmHg 94%
    22:00 +14°C° 0 mm 0 mps 597 mmHg 94%
    23:00 +13°C° 0 mm 0 mps 597 mmHg 92%

    Day after tomorrow, 20 July, Saturday

    Time Temperature Precipitation Wind Pressure Humidity
    00:00 +13°C° 0 mm 0 mps 596 mmHg 91%
    01:00 +13°C° 0 mm 0 mps 596 mmHg 90%
    02:00 +14°C° 0 mm 1 mps 596 mmHg 89%
    03:00 +13°C° 0 mm 1 mps 595 mmHg 88%
    04:00 +13°C° 0 mm 1 mps 595 mmHg 87%
    05:00 +14°C° 0 mm 1 mps 596 mmHg 85%
    06:00 +14°C° 0 mm 1 mps 596 mmHg 83%
    07:00 +13°C° 0 mm 0 mps 597 mmHg 81%
    08:00 +18°C° 0 mm 1 mps 598 mmHg 72%
    09:00 +20°C° 0 mm 1 mps 599 mmHg 64%
    10:00 +21°C° 0 mm 2 mps 600 mmHg 56%
    11:00 +23°C° 0.1 mm 2 mps 599 mmHg 55%
    12:00 +22°C° 0.1 mm 3 mps 599 mmHg 55%
    13:00 +24°C° 0.1 mm 3 mps 599 mmHg 54%
    14:00 +22°C° 0.2 mm 3 mps 598 mmHg 57%
    15:00 +22°C° 0.2 mm 3 mps 597 mmHg 61%
    16:00 +22°C° 0.2 mm 3 mps 596 mmHg 64%
    17:00 +20°C° 0 mm 2 mps 596 mmHg 74%
    18:00 +18°C° 0 mm 2 mps 596 mmHg 83%
    19:00 +16°C° 0 mm 1 mps 595 mmHg 93%
    20:00 +16°C° 0 mm 1 mps 596 mmHg 93%
    21:00 +14°C° 0 mm 0 mps 596 mmHg 93%
    22:00 +14°C° 0 mm 0 mps 596 mmHg 93%
    23:00 +14°C° 0 mm 0 mps 596 mmHg 92%

    21 July, Sunday

    Time Temperature Precipitation Wind Pressure Humidity
    00:00 +14°C° 0 mm 1 mps 596 mmHg 92%
    01:00 +14°C° 0 mm 1 mps 596 mmHg 91%
    02:00 +14°C° 0 mm 1 mps 596 mmHg 89%
    03:00 +14°C° 0 mm 1 mps 595 mmHg 88%
    04:00 +14°C° 0 mm 1 mps 595 mmHg 86%
    05:00 +14°C° 0 mm 1 mps 596 mmHg 85%
    06:00 +14°C° 0 mm 1 mps 596 mmHg 83%
    07:00 +15°C° 0 mm 1 mps 597 mmHg 82%
    08:00 +18°C° 0 mm 1 mps 598 mmHg 74%
    09:00 +19°C° 0 mm 2 mps 598 mmHg 66%
    10:00 +23°C° 0 mm 2 mps 599 mmHg 58%
    11:00 +23°C° 0.2 mm 2 mps 599 mmHg 57%
    12:00 +24°C° 0.2 mm 3 mps 598 mmHg 57%
    13:00 +24°C° 0.2 mm 3 mps 598 mmHg 57%
    14:00 +24°C° 0.2 mm 3 mps 597 mmHg 60%
    15:00 +24°C° 0.2 mm 3 mps 597 mmHg 63%
    16:00 +22°C° 0.2 mm 3 mps 596 mmHg 66%
    17:00 +20°C° 0.1 mm 2 mps 596 mmHg 76%
    18:00 +19°C° 0.1 mm 2 mps 596 mmHg 86%
    19:00 +18°C° 0.1 mm 1 mps 596 mmHg 96%
    20:00 +16°C° 0 mm 1 mps 596 mmHg 96%
    21:00 +16°C° 0 mm 1 mps 596 mmHg 95%
    22:00 +15°C° 0 mm 0 mps 597 mmHg 95%
    23:00 +15°C° 0 mm 0 mps 597 mmHg 93%

    22 July, Monday

    Time Temperature Precipitation Wind Pressure Humidity
    00:00 +15°C° 0 mm 0 mps 596 mmHg 92%
    01:00 +15°C° 0 mm 0 mps 596 mmHg 90%
    02:00 +14°C° 0 mm 0 mps 596 mmHg 90%
    03:00 +14°C° 0 mm 0 mps 595 mmHg 90%
    04:00 +13°C° 0 mm 0 mps 595 mmHg 91%
    05:00 +14°C° 0 mm 1 mps 595 mmHg 89%
    06:00 +15°C° 0 mm 1 mps 596 mmHg 88%
    07:00 +15°C° 0 mm 1 mps 597 mmHg 87%
    08:00 +18°C° 0 mm 1 mps 598 mmHg 79%
    09:00 +20°C° 0 mm 1 mps 599 mmHg 70%
    10:00 +21°C° 0 mm 2 mps 600 mmHg 62%
    11:00 +23°C° 0.3 mm 2 mps 599 mmHg 62%
    12:00 +24°C° 0.3 mm 3 mps 599 mmHg 61%
    13:00 +24°C° 0.3 mm 3 mps 598 mmHg 61%
    14:00 +24°C° 0.4 mm 3 mps 598 mmHg 64%
    15:00 +22°C° 0.4 mm 3 mps 597 mmHg 67%
    16:00 +22°C° 0.4 mm 3 mps 597 mmHg 70%
    17:00 +20°C° 0.2 mm 3 mps 596 mmHg 78%
    18:00 +19°C° 0.2 mm 2 mps 596 mmHg 86%
    19:00 +18°C° 0.2 mm 1 mps 596 mmHg 95%
    20:00 +18°C° 0 mm 1 mps 596 mmHg 94%
    21:00 +16°C° 0 mm 1 mps 597 mmHg 94%
    22:00 +15°C° 0 mm 0 mps 597 mmHg 94%
    23:00 +15°C° 0 mm 0 mps 597 mmHg 93%

    23 July, Tuesday

    Time Temperature Precipitation Wind Pressure Humidity
    00:00 +15°C° 0 mm 1 mps 596 mmHg 92%
    01:00 +15°C° 0 mm 1 mps 596 mmHg 91%
    02:00 +15°C° 0 mm 1 mps 596 mmHg 90%
    03:00 +15°C° 0 mm 1 mps 595 mmHg 89%
    04:00 +14°C° 0 mm 1 mps 595 mmHg 89%
    05:00 +14°C° 0 mm 0 mps 596 mmHg 87%
    06:00 +14°C° 0 mm 0 mps 596 mmHg 86%
    07:00 +15°C° 0 mm 0 mps 597 mmHg 85%
    08:00 +19°C° 0 mm 1 mps 598 mmHg 78%
    09:00 +21°C° 0 mm 1 mps 599 mmHg 71%
    10:00 +23°C° 0 mm 2 mps 599 mmHg 64%
    11:00 +23°C° 0.4 mm 2 mps 599 mmHg 63%
    12:00 +24°C° 0.4 mm 3 mps 599 mmHg 63%
    13:00 +25°C° 0.4 mm 3 mps 598 mmHg 63%
    14:00 +24°C° 0.3 mm 3 mps 598 mmHg 67%
    15:00 +22°C° 0.3 mm 3 mps 597 mmHg 71%
    16:00 +22°C° 0.3 mm 3 mps 596 mmHg 74%
    17:00 +20°C° 0.2 mm 3 mps 596 mmHg 81%
    18:00 +19°C° 0.2 mm 2 mps 596 mmHg 88%
    19:00 +19°C° 0.2 mm 1 mps 596 mmHg 94%
    20:00 +18°C° 0 mm 1 mps 597 mmHg 94%
    21:00 +18°C° 0 mm 1 mps 597 mmHg 94%
    22:00 +16°C° 0 mm 0 mps 597 mmHg 94%
    23:00 +15°C° 0 mm 0 mps 597 mmHg 94%
    Show more